星链-30835 (STARLINK-30835 )

导读

STARLINK-30835是美国星链计划的低轨卫星,于2023年11月3日发射,隶属于太空探索技术公司(SpaceX)的Starlink星座。该星座旨在为全球提供高速互联网覆盖,这颗卫星入轨后,进一步扩充了星链星座的卫星规模,提升了星座的全球服务覆盖能力,延续了星链星座低轨通信组网的部署进程。

基本信息
目录编号:
58219
目录名称:
STARLINK-30835
国际标识:
2023-170P
轨道中心:
EARTH
卫星名称:
星链-30835
卫星全名:
星链-30835 (STARLINK-30835 )
卫星状态:
在轨 (已飞行958 天)
发射日期:
2023-11-03 UTC
国别 :
美国 (US)
星等 :
--
轨道信息
数据来源 国际轨道数据
星历时间: 2026-06-18T05:20:46+0800
11小时前
查看轨道信息
半长轴: 6861.127km
偏心率: 0.0003403
轨道倾角: 43.007°
近地点辐角 268.305°
升交点赤经 348.356°
平近点角 91.741°
近地点: 480.655km
远地点: 485.325km
周期: 94.266分钟
每日圈数: 15.276
详细信息
固有亮度:
5
最大亮度:
0.3
卫星平台:
Starlink v2.0 mini
覆盖范围:
全球
运营商:
太空探索技术公司
运营商所在国:
美国
制造商(研发单位):
太空探索技术公司
制造商所在国:
美国
使用方式:
暂无
卫星简介
星链(Starlink)计划是由太空探索技术公司(SpaceX)提出的一个巨型低轨卫星互联网星座项目,计划在2019年至2024年间在太空搭建由约1.2万颗卫星组成的“星链”网络,其中1584颗将部署在地球上空550千米处的近地轨道,并从2020年开始工作。该卫星仍在工作。
2D轨道图
3D轨道图
轨道高度分析图
轨道倾角分析图
轨道综合分析图
查看轨道综合分析图